This demonstration page uses our WeatherBlox Daily Observations layout. Learn more.

Left ArrowRight Arrow

Hourly Observations for September 26, 2018

Temp ( °F °C ) Dew Point ( °F °C ) Humidity (%) Winds ( mph kmh ) Pressure ( in mb ) Visibility ( mi km ) Precip ( " mm )
12:54 am 00:54 Clear 44 6.7 42 5.6 93 93 N N/A 30.22 1023 10 16 N/A
1:54 am 01:54 Clear 50 10 44 6.7 80 80 WNW 5 7 30.22 1023 10 16 N/A
2:54 am 02:54 Clear 49 9.4 42 5.6 77 77 NW 6 9 30.23 1024 10 16 N/A
3:54 am 03:54 Clear 46 7.8 41 5 83 83 NNW 6 9 30.24 1024 10 16 N/A
4:54 am 04:54 Clear 45 7.2 40 4.4 83 83 NNW 6 9 30.23 1024 10 16 N/A
5:54 am 05:54 Clear 47 8.3 40 4.4 77 77 WNW 5 7 30.26 1025 10 16 N/A
6:54 am 06:54 Clear 45 7.2 39 3.9 80 80 SW 5 7 30.27 1025 10 16 N/A
7:54 am 07:54 Sunny 45 7.2 39 3.9 80 80 W 3 6 30.29 1026 10 16 N/A
8:54 am 08:54 Sunny 49 9.4 41 5 74 74 WSW 8 13 30.32 1027 10 16 N/A
9:54 am 09:54 Sunny 57 13.9 44 6.7 62 62 N 5 7 30.30 1026 10 16 N/A
10:54 am 10:54 Sunny 63 17.2 38 3.3 40 40 NW 10 17 30.30 1026 10 16 N/A
11:54 am 11:54 Sunny 66 18.9 32 undefined 28 28 NW 6 9 30.31 1026 10 16 N/A
12:54 pm 12:54 Sunny 67 19.4 32 undefined 27 27 W 5 7 30.29 1026 10 16 N/A
1:54 pm 13:54 Sunny 68 20 32 undefined 26 26 W 8 13 30.24 1024 10 16 N/A
2:54 pm 14:54 Sunny 70 21.1 32 undefined 25 25 WNW 7 11 30.20 1023 10 16 N/A
3:54 pm 15:54 Sunny 70 21.1 31 -0.6 23 23 VRB 5 7 30.17 1022 10 16 N/A
4:54 pm 16:54 Sunny 71 21.7 33 0.6 25 25 W 9 15 30.14 1021 10 16 N/A
5:54 pm 17:54 Sunny 70 21.1 32 undefined 25 25 N N/A 30.11 1020 10 16 N/A
6:54 pm 18:54 Sunny 63 17.2 41 5 45 45 S 7 11 30.12 1020 10 16 N/A
7:54 pm 19:54 Clear 59 15 41 5 51 51 S 7 11 30.12 1020 10 16 N/A
8:54 pm 20:54 Clear 52 11.1 42 5.6 69 69 S 8 13 30.12 1020 10 16 N/A
9:54 pm 21:54 Clear 50 10 42 5.6 74 74 S 10 17 30.11 1020 10 16 N/A
10:54 pm 22:54 Clear 52 11.1 41 5 66 66 S 10 17 30.11 1020 10 16 N/A
11:54 pm 23:54 Clear 51 10.6 41 5 69 69 S 9 15 30.09 1019 10 16 N/A

Powered by AerisWeather